Location: Kumla
(59.1265°N, 15.1401°E)
Time: 07:55:07
(UTC+01:00)

Transit 4A - Pass Details

Date: 08 December 2023
Orbit: 870 x 973 km, 66.8° (Epoch: 02 March)

Event Time Altitude Azimuth Distance (km) Brightness Sun altitude
Exits shadow 04:30:30 12° 178° (S) 2,422 10.0 -29.6°
Drops below altitude 10° 04:30:57 10° 176° (S) 2,575 10.2 -29.5°
Sets 04:33:35 0° 168° (SSE) 3,497 11.0 -29.2°
